Time,TemperatureF,DewpointF,PressureIn,WindDirection,WindDirectionDegrees,WindSpeedMPH,WindSpeedGustMPH,Humidity,HourlyPrecipIn,Conditions,Clouds,dailyrainin,SolarRadiationWatts/m^2,SoftwareType,DateUTC
2013-03-02 00:03:00,40.8,34.0,30.49,SE,125,6.0,7.0,76,0.00,,,0.00,0,weatherlink.com 1.10,2013-03-02 07:03:00,
2013-03-02 00:18:00,41.0,33.0,30.48,ESE,115,4.0,7.0,74,0.00,,,0.00,0,weatherlink.com 1.10,2013-03-02 07:18:00,
2013-03-02 00:33:00,38.0,32.0,30.48,NW,306,3.0,4.0,78,0.00,,,0.00,0,weatherlink.com 1.10,2013-03-02 07:33:00,
2013-03-02 00:48:00,36.7,32.0,30.48,ENE,70,0.0,4.0,82,0.00,,,0.00,0,weatherlink.com 1.10,2013-03-02 07:48:00,
2013-03-02 01:03:00,37.3,32.0,30.48,NW,307,5.0,6.0,80,0.00,,,0.00,0,weatherlink.com 1.10,2013-03-02 08:03:00,
2013-03-02 01:18:00,35.8,31.0,30.48,NNE,25,0.0,2.0,83,0.00,,,0.00,0,weatherlink.com 1.10,2013-03-02 08:18:00,
2013-03-02 01:33:00,35.8,31.0,30.48,East,89,5.0,5.0,84,0.00,,,0.00,0,weatherlink.com 1.10,2013-03-02 08:33:00,
2013-03-02 01:48:00,37.6,32.0,30.48,SE,128,3.0,7.0,81,0.00,,,0.00,0,weatherlink.com 1.10,2013-03-02 08:48:00,
2013-03-02 02:03:00,37.9,32.0,30.48,ESE,117,4.0,5.0,80,0.00,,,0.00,0,weatherlink.com 1.10,2013-03-02 09:03:00,
2013-03-02 02:18:00,37.4,32.0,30.47,SE,131,5.0,6.0,80,0.00,,,0.00,0,weatherlink.com 1.10,2013-03-02 09:18:00,
2013-03-02 02:33:00,35.3,30.0,30.47,NNE,23,2.0,4.0,81,0.00,,,0.00,0,weatherlink.com 1.10,2013-03-02 09:33:00,
2013-03-02 02:48:00,35.9,31.0,30.46,ENE,58,2.0,4.0,82,0.00,,,0.00,0,weatherlink.com 1.10,2013-03-02 09:48:00,
2013-03-02 03:03:00,35.1,30.0,30.46,South,173,2.0,3.0,83,0.00,,,0.00,0,weatherlink.com 1.10,2013-03-02 10:03:00,
2013-03-02 03:19:00,34.6,31.0,30.45,SSE,162,2.0,3.0,85,0.00,,,0.00,0,weatherlink.com 1.10,2013-03-02 10:19:00,
2013-03-02 03:34:00,34.2,30.0,30.45,ENE,71,4.0,5.0,84,0.00,,,0.00,0,weatherlink.com 1.10,2013-03-02 10:34:00,
2013-03-02 03:49:00,34.6,31.0,30.45,NE,38,0.0,2.0,86,0.00,,,0.00,0,weatherlink.com 1.10,2013-03-02 10:49:00,
2013-03-02 04:04:00,34.4,30.0,30.45,NE,38,1.0,3.0,85,0.00,,,0.00,0,weatherlink.com 1.10,2013-03-02 11:04:00,
2013-03-02 04:19:00,35.5,31.0,30.45,ENE,64,1.0,5.0,84,0.00,,,0.00,0,weatherlink.com 1.10,2013-03-02 11:19:00,
2013-03-02 04:34:00,35.8,31.0,30.45,NE,56,0.0,5.0,82,0.00,,,0.00,0,weatherlink.com 1.10,2013-03-02 11:34:00,
2013-03-02 04:49:00,35.7,30.0,30.45,North,6,2.0,2.0,81,0.00,,,0.00,0,weatherlink.com 1.10,2013-03-02 11:49:00,
2013-03-02 05:04:00,35.9,31.0,30.45,ENE,73,2.0,3.0,82,0.00,,,0.00,0,weatherlink.com 1.10,2013-03-02 12:04:00,
2013-03-02 05:19:00,35.6,31.0,30.45,ENE,73,3.0,3.0,83,0.00,,,0.00,0,weatherlink.com 1.10,2013-03-02 12:19:00,
2013-03-02 05:34:00,35.8,31.0,30.45,ENE,73,4.0,5.0,84,0.00,,,0.00,0,weatherlink.com 1.10,2013-03-02 12:34:00,
2013-03-02 05:49:00,34.3,29.0,30.45,ENE,73,5.0,6.0,82,0.00,,,0.00,0,weatherlink.com 1.10,2013-03-02 12:49:00,
2013-03-02 06:04:00,34.1,30.0,30.45,ENE,72,2.0,3.0,85,0.00,,,0.00,0,weatherlink.com 1.10,2013-03-02 13:04:00,
2013-03-02 06:19:00,35.1,31.0,30.44,ENE,72,0.0,1.0,84,0.00,,,0.00,0,weatherlink.com 1.10,2013-03-02 13:19:00,
2013-03-02 06:34:00,33.7,30.0,30.44,NE,38,0.0,4.0,85,0.00,,,0.00,0,weatherlink.com 1.10,2013-03-02 13:34:00,
2013-03-02 06:49:00,34.1,30.0,30.45,NE,38,0.0,4.0,86,0.00,,,0.00,0,weatherlink.com 1.10,2013-03-02 13:49:00,
2013-03-02 07:04:00,32.9,28.0,30.44,NE,34,3.0,5.0,83,0.00,,,0.00,0,weatherlink.com 1.10,2013-03-02 14:04:00,
2013-03-02 07:19:00,31.7,28.0,30.43,WNW,293,0.0,3.0,87,0.00,,,0.00,5,weatherlink.com 1.10,2013-03-02 14:19:00,
2013-03-02 07:34:00,32.1,30.0,30.43,NE,48,1.0,5.0,90,0.00,,,0.00,19,weatherlink.com 1.10,2013-03-02 14:34:00,
2013-03-02 07:49:00,34.1,30.0,30.42,ESE,121,4.0,5.0,86,0.00,,,0.00,40,weatherlink.com 1.10,2013-03-02 14:49:00,
2013-03-02 08:04:00,35.7,31.0,30.41,SE,137,0.0,6.0,82,0.00,,,0.00,53,weatherlink.com 1.10,2013-03-02 15:04:00,
2013-03-02 08:19:00,36.2,31.0,30.40,SE,137,0.0,1.0,81,0.00,,,0.00,90,weatherlink.com 1.10,2013-03-02 15:19:00,
2013-03-02 08:34:00,33.9,30.0,30.40,East,96,3.0,4.0,84,0.00,,,0.00,120,weatherlink.com 1.10,2013-03-02 15:34:00,
2013-03-02 08:49:00,36.5,32.0,30.40,SSE,162,4.0,4.0,84,0.00,,,0.00,142,weatherlink.com 1.10,2013-03-02 15:49:00,
2013-03-02 09:04:00,36.8,32.0,30.39,South,169,1.0,5.0,84,0.00,,,0.00,148,weatherlink.com 1.10,2013-03-02 16:04:00,
2013-03-02 09:19:00,35.7,32.0,30.39,South,169,2.0,3.0,86,0.00,,,0.00,206,weatherlink.com 1.10,2013-03-02 16:19:00,
2013-03-02 09:34:00,36.5,33.0,30.38,South,169,1.0,3.0,86,0.00,,,0.00,225,weatherlink.com 1.10,2013-03-02 16:34:00,
2013-03-02 09:49:00,37.5,33.0,30.38,South,170,0.0,4.0,84,0.00,,,0.00,269,weatherlink.com 1.10,2013-03-02 16:49:00,
2013-03-02 10:04:00,40.1,33.0,30.37,South,170,0.0,3.0,77,0.00,,,0.00,294,weatherlink.com 1.10,2013-03-02 17:04:00,
2013-03-02 10:19:00,41.9,34.0,30.37,South,170,0.0,4.0,74,0.00,,,0.00,265,weatherlink.com 1.10,2013-03-02 17:19:00,
2013-03-02 10:34:00,42.1,35.0,30.36,South,170,2.0,2.0,75,0.00,,,0.00,302,weatherlink.com 1.10,2013-03-02 17:34:00,
2013-03-02 10:49:00,43.2,35.0,30.34,South,170,1.0,2.0,74,0.00,,,0.00,367,weatherlink.com 1.10,2013-03-02 17:49:00,
2013-03-02 11:05:00,43.5,35.0,30.34,West,278,0.0,5.0,71,0.00,,,0.00,299,weatherlink.com 1.10,2013-03-02 18:05:00,
2013-03-02 11:20:00,45.4,35.0,30.34,West,278,0.0,1.0,68,0.00,,,0.00,357,weatherlink.com 1.10,2013-03-02 18:20:00,
2013-03-02 11:35:00,47.1,35.0,30.33,West,275,4.0,4.0,63,0.00,,,0.00,325,weatherlink.com 1.10,2013-03-02 18:35:00,
2013-03-02 11:50:00,47.1,34.0,30.32,WNW,300,5.0,7.0,61,0.00,,,0.00,318,weatherlink.com 1.10,2013-03-02 18:50:00,
2013-03-02 12:05:00,47.4,35.0,30.32,NNW,329,5.0,6.0,62,0.00,,,0.00,283,weatherlink.com 1.10,2013-03-02 19:05:00,
2013-03-02 12:20:00,48.2,34.0,30.31,NNW,345,3.0,3.0,59,0.00,,,0.00,132,weatherlink.com 1.10,2013-03-02 19:20:00,
2013-03-02 12:35:00,47.8,34.0,30.30,WNW,301,0.0,5.0,60,0.00,,,0.00,197,weatherlink.com 1.10,2013-03-02 19:35:00,
2013-03-02 12:50:00,48.2,35.0,30.29,WNW,301,1.0,4.0,61,0.00,,,0.00,239,weatherlink.com 1.10,2013-03-02 19:50:00,
2013-03-02 13:05:00,49.1,35.0,30.28,WNW,301,0.0,2.0,58,0.00,,,0.00,292,weatherlink.com 1.10,2013-03-02 20:05:00,
2013-03-02 13:20:00,49.5,34.0,30.27,WNW,295,0.0,5.0,56,0.00,,,0.00,357,weatherlink.com 1.10,2013-03-02 20:20:00,
2013-03-02 13:35:00,51.3,34.0,30.26,WNW,295,3.0,4.0,53,0.00,,,0.00,346,weatherlink.com 1.10,2013-03-02 20:35:00,
2013-03-02 13:50:00,51.8,34.0,30.24,WNW,295,0.0,3.0,52,0.00,,,0.00,299,weatherlink.com 1.10,2013-03-02 20:50:00,
2013-03-02 14:05:00,52.4,34.0,30.23,WNW,294,0.0,5.0,49,0.00,,,0.00,311,weatherlink.com 1.10,2013-03-02 21:05:00,
2013-03-02 14:20:00,52.8,33.0,30.22,WNW,292,3.0,6.0,47,0.00,,,0.00,338,weatherlink.com 1.10,2013-03-02 21:20:00,
2013-03-02 14:35:00,53.2,33.0,30.22,NW,308,2.0,7.0,47,0.00,,,0.00,359,weatherlink.com 1.10,2013-03-02 21:35:00,
2013-03-02 14:50:00,54.0,34.0,30.20,NE,43,3.0,5.0,48,0.00,,,0.00,232,weatherlink.com 1.10,2013-03-02 21:50:00,
2013-03-02 15:05:00,54.5,33.0,30.20,North,4,1.0,3.0,45,0.00,,,0.00,248,weatherlink.com 1.10,2013-03-02 22:05:00,
2013-03-02 15:20:00,54.8,33.0,30.19,SW,234,0.0,3.0,44,0.00,,,0.00,232,weatherlink.com 1.10,2013-03-02 22:20:00,
2013-03-02 15:35:00,55.0,34.0,30.18,SSW,205,1.0,4.0,45,0.00,,,0.00,234,weatherlink.com 1.10,2013-03-02 22:35:00,
2013-03-02 15:50:00,55.2,33.0,30.17,SSW,205,0.0,1.0,43,0.00,,,0.00,195,weatherlink.com 1.10,2013-03-02 22:50:00,
2013-03-02 16:06:00,54.8,33.0,30.16,West,262,2.0,4.0,44,0.00,,,0.00,153,weatherlink.com 1.10,2013-03-02 23:06:00,
2013-03-02 16:21:00,54.4,33.0,30.15,WNW,300,3.0,5.0,45,0.00,,,0.00,107,weatherlink.com 1.10,2013-03-02 23:21:00,
2013-03-02 16:36:00,53.6,35.0,30.15,NW,325,5.0,7.0,50,0.00,,,0.00,97,weatherlink.com 1.10,2013-03-02 23:36:00,
2013-03-02 16:51:00,52.7,36.0,30.14,NNW,330,1.0,7.0,54,0.00,,,0.00,79,weatherlink.com 1.10,2013-03-02 23:51:00,
2013-03-02 17:06:00,51.9,36.0,30.14,NNW,329,1.0,5.0,56,0.00,,,0.00,62,weatherlink.com 1.10,2013-03-03 00:06:00,
2013-03-02 17:21:00,51.4,36.0,30.14,NNW,329,0.0,2.0,56,0.00,,,0.00,51,weatherlink.com 1.10,2013-03-03 00:21:00,
2013-03-02 17:36:00,51.1,35.0,30.13,NNW,329,1.0,3.0,55,0.00,,,0.00,44,weatherlink.com 1.10,2013-03-03 00:36:00,
2013-03-02 17:51:00,50.6,36.0,30.12,NNW,329,0.0,4.0,58,0.00,,,0.00,26,weatherlink.com 1.10,2013-03-03 00:51:00,
2013-03-02 18:06:00,49.6,36.0,30.12,NNW,330,3.0,4.0,59,0.00,,,0.00,14,weatherlink.com 1.10,2013-03-03 01:06:00,
2013-03-02 18:21:00,48.2,34.0,30.10,NNE,21,3.0,5.0,59,0.00,,,0.00,0,weatherlink.com 1.10,2013-03-03 01:21:00,
2013-03-02 18:36:00,48.4,34.0,30.11,NNW,333,7.0,7.0,59,0.00,,,0.00,0,weatherlink.com 1.10,2013-03-03 01:36:00,
2013-03-02 18:51:00,48.3,33.0,30.10,NNW,347,6.0,9.0,57,0.00,,,0.00,0,weatherlink.com 1.10,2013-03-03 01:51:00,
2013-03-02 19:06:00,50.2,34.0,30.10,North,1,10.0,13.0,54,0.00,,,0.00,0,weatherlink.com 1.10,2013-03-03 02:06:00,
2013-03-02 19:21:00,50.3,34.0,30.09,North,10,7.0,14.0,55,0.00,,,0.00,0,weatherlink.com 1.10,2013-03-03 02:21:00,
2013-03-02 19:36:00,50.2,34.0,30.09,North,10,10.0,16.0,55,0.00,,,0.00,0,weatherlink.com 1.10,2013-03-03 02:36:00,
2013-03-02 19:51:00,49.7,35.0,30.08,North,10,9.0,16.0,57,0.00,,,0.00,0,weatherlink.com 1.10,2013-03-03 02:51:00,
2013-03-02 20:06:00,49.2,35.0,30.08,NNE,27,7.0,16.0,58,0.00,,,0.00,0,weatherlink.com 1.10,2013-03-03 03:06:00,
2013-03-02 20:21:00,49.1,35.0,30.08,North,1,7.0,16.0,59,0.00,,,0.00,0,weatherlink.com 1.10,2013-03-03 03:21:00,
2013-03-02 20:36:00,49.3,35.0,30.07,NNE,32,9.0,12.0,59,0.00,,,0.00,0,weatherlink.com 1.10,2013-03-03 03:36:00,
2013-03-02 20:51:00,49.1,35.0,30.07,NNE,14,6.0,12.0,59,0.00,,,0.00,0,weatherlink.com 1.10,2013-03-03 03:51:00,
2013-03-02 21:06:00,47.8,36.0,30.07,NNE,16,9.0,13.0,63,0.00,,,0.00,0,weatherlink.com 1.10,2013-03-03 04:06:00,
2013-03-02 21:21:00,46.9,36.0,30.07,North,358,10.0,14.0,67,0.00,,,0.00,0,weatherlink.com 1.10,2013-03-03 04:21:00,
2013-03-02 21:36:00,46.0,38.0,30.07,NNE,27,7.0,12.0,73,0.00,,,0.00,0,weatherlink.com 1.10,2013-03-03 04:36:00,
2013-03-02 21:51:00,45.3,38.0,30.07,NNE,13,6.0,11.0,76,0.01,,,0.01,0,weatherlink.com 1.10,2013-03-03 04:51:00,
2013-03-02 22:06:00,44.4,38.0,30.07,North,360,8.0,12.0,79,0.03,,,0.03,0,weatherlink.com 1.10,2013-03-03 05:06:00,
2013-03-02 22:21:00,44.0,39.0,30.07,North,4,9.0,11.0,81,0.03,,,0.03,0,weatherlink.com 1.10,2013-03-03 05:21:00,
2013-03-02 22:36:00,43.7,39.0,30.07,North,4,10.0,12.0,83,0.04,,,0.04,0,weatherlink.com 1.10,2013-03-03 05:36:00,
2013-03-02 22:51:00,43.3,39.0,30.07,North,353,7.0,12.0,84,0.04,,,0.05,0,weatherlink.com 1.10,2013-03-03 05:51:00,
2013-03-02 23:06:00,42.7,39.0,30.06,North,360,8.0,12.0,86,0.03,,,0.06,0,weatherlink.com 1.10,2013-03-03 06:06:00,
2013-03-02 23:21:00,42.9,38.0,30.05,NNE,18,10.0,14.0,84,0.04,,,0.07,0,weatherlink.com 1.10,2013-03-03 06:21:00,
2013-03-02 23:36:00,43.3,38.0,30.05,NNW,343,5.0,12.0,82,0.03,,,0.07,0,weatherlink.com 1.10,2013-03-03 06:36:00,
2013-03-02 23:51:00,42.9,38.0,30.04,North,4,7.0,11.0,84,0.03,,,0.08,0,weatherlink.com 1.10,2013-03-03 06:51:00,